Tracking 35035 objects as of 16-Aug-2026
HD Live streaming from Space Station
objects crossing your sky now

STARLINK-35722

Track STARLINK-35722 now!
10-day predictions
STARLINK-35722 is classified as:


NORAD ID: 66218
Int'l Code: 2025-244N
Launch date: October 28, 2025
Source: United States (US)
Launch site: AIR FORCE WESTERN TEST RANGE (AFWTR)
Your satellite tracking list
Your tracking list is empty




NASA's NSSDC Master Catalog

Two Line Element Set (TLE):
1 66218U 25244N   26228.24418037  .00005433  00000-0  17180-3 0  9994
2 66218  53.1578 206.2720 0001432  87.8691 272.2475 15.34402264 46125
Source of the keplerian elements: AFSPC